Location: Newark
(44.2003°N, 3.2583°E)
Time: 13:50:47
(UTC+00:00)

Envisat - Visible Passes

Search period start: 20 September 2019 00:00
Search period end: 30 September 2019 00:00
Orbit: 764 x 766 km, 98.1° (Epoch: 20 September)

Date Brightness Start Highest point End Pass type
(mag) Time Alt. Az. Time Alt. Az. Time Alt. Az.
20 Sep 6.1 19:26:54 10° WSW 19:29:20 13° W 19:31:46 10° WNW visible
21 Sep 5.2 18:47:48 10° SSW 18:52:11 29° W 18:56:35 10° NW visible
22 Sep 3.6 18:10:13 10° S 18:15:14 62° W 18:20:17 10° NNW visible
23 Sep 5.9 19:14:41 10° SW 19:17:56 17° W 19:21:13 10° NW visible
24 Sep 4.7 18:36:12 10° SSW 18:40:50 36° W 18:45:32 10° NNW visible
25 Sep 3.2 17:58:53 10° S 18:03:58 78° WSW 18:09:04 10° NNW visible
26 Sep 5.6 19:02:44 10° SW 19:06:33 21° W 19:10:25 10° NW visible
27 Sep 4.3 18:24:41 10° S 18:29:32 45° W 18:34:25 10° NNW visible
28 Sep 6.2 19:30:24 10° WSW 19:32:23 12° W 19:34:21 10° WNW visible
29 Sep 5.3 18:50:58 10° SSW 18:55:12 26° W 18:59:29 10° NW visible
